THORAD DELTA 1 R/B(2), 9330

Orbit data source: Space-Track

THORAD DELTA 1 R/B(2), 9330 is space debris in HEO originally from a launch on Thu, 19 Dec 1974 UTC launched from the Air Force Eastern Test Range (AFETR). Debris objects in space refer to the collection of defunct objects orbiting the Earth. Examples of debris include non-operational satellites, rocket bodies, and fragments generated from explosions, collisions, or faulty payload assembly.

Loading next visibility...
Identifier
9330, 1974-101G
Orbit
HEO
Country
Flag of USUS
Related business
Manufacturer
Thiokol/TE
Mission
Spacecraft
Bus & Motor
STAR 37, Unknown motor
Mass
~83 kg wet, 83 kg dry
Launch date (UTC)
1974-12-19 (52 years ago)
Launch vehicle
Unknown
Launch site
Air Force Eastern Test Range (AFETR)
Object type
Payload
Rocket body
Debris
Shape & HBR
SPHERE + CONE, 1.1 m
Radar Cross Section
Large (>1 m²)

Expand to show TLE details & history
Last TLE update: 19 hours ago

TLE from 19 hours ago
0 THORAD DELTA 1 R/B(2)
1  9330U 74101G   26254.45417771  .00000346  00000-0  91571-3 0  9992
2  9330  13.0124 283.2181 7195164 340.3066   2.3301  2.31321770421044
Epoch: 2026-09-11T10:54Z
TLE epoch observation values (Epoch: 2026-09-11T10:54:00.954Z)
Latitude
0.00114°
Longitude
129.27964°
Altitude
593.83 km
Speed
9.891 km/s
True Right ascension
18h 53m 02s
True Declination
0° 00' 04"
Sunlit
Object was in daylight at epoch
Visualization orbit readout
Latitude
Unknown
Longitude
Unknown
Altitude
Unknown
Speed
Unknown
Apparent Right ascension
Unknown
Apparent Declination
Unknown
Sunlit
N/A
Visualization observer readout
Local Sidereal Time
22:08:29
Azimuth
Unknown
Elevation
Unknown
Doppler factor
Unknown
Orbital elements
Apogee altitude
35,157.534 km
Perigee altitude
397.067 km
Semi-major axis
24,155.437 km
Eccentricity
0.71952
Inclination
13.0124°
RAAN
283.2181°
Arg. of periapsis
340.3066°
True anomaly
20.21219°
Mean anomaly
2.3301°
Eccentric anomaly
8.23479°
Mean motion
0.57812 °/min
Orbital period
622.7 mins
BSTAR
0.00091571
Loading maneuver chart data...
Computing Atmospheric mass density...
Loading historical data...
Loading historical data...
Loading historical data...
Loading historical data...
Loading historical data...
Loading historical data...
Loading historical data...

Documentation

Showing up to 5 results
|